Seldovia, AK

10:25 AM AKST on February 09, 2016 (GMT -0900)
Seldovia

Weather History for PASO - January, 2014

Change the Weather History Date:

Sunday, January 26, 2014

  Actual Average (PAHO) Record (PAHO)
Temperature  
Mean Temperature 46 °F -  
Max Temperature 54 °F 29 °F 53 °F (2014)
Min Temperature 39 °F 17 °F -16 °F (1947)
Degree Days  
Heating Degree Days 18    
Moisture  
Dew Point 38 °F    
Average Humidity 81    
Maximum Humidity 100    
Minimum Humidity 34    
Precipitation  
Precipitation 0.18 in - - ()
Sea Level Pressure  
Sea Level Pressure 29.79 in    
Wind  
Wind Speed 6 mph (East)    
Max Wind Speed 18 mph    
Max Gust Speed 28 mph    
Visibility 9 miles    
Events Rain    
Averages and records for this station are not official NWS values.
T = Trace of Precipitation, MM = Missing Value Source: NWS Daily Summary

Daily Weather History Graph

Daily Weather History Graph

Search for Another Location

Airport or City:

Trip Planner

Search our weather history database for the weather conditions in past years. The results will help you decide how hot, cold, wet, or windy it might be!

Date:

Astronomy

Jan. 26, 2014 Rise Set
Actual Time 9:29 AM AKST 5:09 PM AKST
Civil Twilight 8:42 AM AKST 5:57 PM AKST
Nautical Twilight 7:51 AM AKST 6:48 PM AKST
Astronomical Twilight 7:03 AM AKST 7:36 PM AKST
Moon 5:26 AM AKST (1/26) 12:58 PM AKST (1/26)
Length of Visible Light 9h 15m
Length of Day
7h 39m
Waning Crescent, 22% of the Moon is Illuminated
Jan 26
Waning Crescent
Jan 30
New
Feb 6
First Quarter
Feb 14
Full
Feb 22
Last Quarter

Hourly Weather History & Observations

Time (AKST) Temp. Windchill Dew Point Humidity Pressure Visibility Wind Dir Wind Speed Gust Speed Precip Events Conditions
12:53 AM 54.0 °F - 26.1 °F 34% 29.74 in 10.0 mi Variable 6.9 mph 23.0 mph N/A   Clear
1:53 AM 52.0 °F - 28.0 °F 40% 29.73 in 10.0 mi NE 11.5 mph 21.9 mph N/A   Clear
3:53 AM 43.0 °F 41.3 °F 37.0 °F 80% 29.73 in 10.0 mi Variable 3.5 mph - 0.00 in Rain Light Rain
4:53 AM 42.1 °F 36.6 °F 41.0 °F 96% 29.76 in 5.0 mi SSW 9.2 mph 21.9 mph 0.09 in Rain Rain
5:53 AM 41.0 °F 38.0 °F 39.0 °F 93% 29.73 in 10.0 mi Variable 4.6 mph 17.3 mph 0.08 in Rain Light Rain
6:53 AM 39.9 °F - 39.0 °F 97% 29.78 in 10.0 mi Calm Calm - 0.01 in   Overcast
7:53 AM 39.0 °F - 39.0 °F 100% 29.84 in 10.0 mi Calm Calm - N/A   Overcast
8:53 AM 42.1 °F 36.6 °F 39.0 °F 89% 29.86 in 10.0 mi NE 9.2 mph - 0.00 in Rain Light Rain
9:53 AM 39.0 °F - 39.0 °F 100% 29.87 in 9.0 mi Calm Calm - 0.00 in   Overcast
10:14 AM 39.2 °F - 39.2 °F 100% 29.86 in 2.0 mi Calm Calm - N/A   Overcast
10:29 AM 39.2 °F - 39.2 °F 100% 29.86 in 5.0 mi Calm Calm - N/A   Overcast
10:53 AM 42.1 °F 37.7 °F 39.9 °F 92% 29.86 in 10.0 mi South 6.9 mph - N/A   Mostly Cloudy
11:53 AM 44.1 °F 40.1 °F 39.9 °F 85% 29.84 in 10.0 mi SSE 6.9 mph - N/A   Clear
12:53 PM 46.0 °F 41.4 °F 39.9 °F 79% 29.84 in 10.0 mi South 9.2 mph 16.1 mph N/A   Clear
1:53 PM 46.9 °F - 39.9 °F 77% 29.83 in 10.0 mi SSE 5.8 mph - N/A   Clear
2:53 PM 44.1 °F - 42.1 °F 93% 29.83 in 10.0 mi Calm Calm - N/A   Mostly Cloudy
3:53 PM 44.1 °F - 42.1 °F 93% 29.84 in 10.0 mi Calm Calm - N/A   Overcast
4:53 PM 43.0 °F - 41.0 °F 93% 29.81 in 10.0 mi Calm Calm - N/A   Overcast
5:53 PM 41.0 °F - 41.0 °F 100% 29.81 in 10.0 mi Calm Calm - N/A   Overcast
6:53 PM 48.9 °F - 37.9 °F 66% 29.78 in 10.0 mi NNE 18.4 mph 27.6 mph N/A   Partly Cloudy
8:53 PM 48.9 °F - 39.0 °F 69% 29.73 in 10.0 mi NE 12.7 mph 19.6 mph N/A   Clear
9:53 PM 51.1 °F - 39.0 °F 63% 29.70 in 10.0 mi NNE 15.0 mph - N/A   Clear
10:53 PM 52.0 °F - 37.0 °F 57% 29.69 in 10.0 mi NNE 10.4 mph - N/A   Partly Cloudy
11:53 PM 54.0 °F - 35.1 °F 49% 29.67 in 10.0 mi ENE 8.1 mph 18.4 mph N/A   Clear